Overview Statistics Trail Chart Weather Telemetry Raw packets
 

This is the latest recevied weather packets stored in our database for station/object JH7MHZ-13. If no packets are shown the sender has not sent any weather packets the latest 10 day(s).

<< 1 2 3 4 5 6 >>
Time Temp. Humidity Pressure Rain* Wind** Luminosity Snow
1788498002 23.89° C 76% 994.5 hPa 0 mm - - -
1788494402 22.22° C 83% 994.9 hPa 0 mm - - -
1788490801 22.78° C 80% 995 hPa 9.14 mm - - -
1788487201 23.89° C 75% 995 hPa 0 mm - - -
1788483600 23.33° C 76% 995.1 hPa 0 mm - - -
1788480000 22.78° C 80% 994.9 hPa 0 mm - - -
1788476399 20.56° C 97% 994.5 hPa 0 mm - - -
1788472798 18.33° C 98% 994.5 hPa 0 mm - - -
1788469198 16.67° C 98% 994.4 hPa 0 mm - - -
1788465618 17.22° C 98% 993.7 hPa 0 mm - - -
1788461997 17.22° C 98% 993.3 hPa 0 mm - - -
1788458396 17.22° C 98% 992.9 hPa 0 mm - - -
1788454796 18.33° C 98% 992.9 hPa 0 mm - - -
1788451195 18.33° C 98% 992.4 hPa 0 mm - - -
1788447594 18.33° C 98% 992.3 hPa 0 mm - - -
1788443994 18.89° C 98% 992.2 hPa 0 mm - - -
1788440393 19.44° C 98% 991.9 hPa 0 mm - - -
1788436793 20° C 98% 991.9 hPa 0 mm - - -
1788433192 20.56° C 97% 992.1 hPa 0 mm - - -
1788429592 21.11° C 96% 991.9 hPa 0 mm - - -
1788425991 21.11° C 95% 991 hPa 0 mm - - -
1788422391 21.67° C 93% 991.1 hPa 0 mm - - -
1788418790 22.22° C 92% 991 hPa 0 mm - - -
1788415189 22.22° C 95% 991.2 hPa 0 mm - - -
1788411589 22.22° C 94% 991.6 hPa 0 mm - - -

* Rain latest hour (hover to see other rain measurements)
** Current wind speed in m/s (hover to see current wind gust speed)